Location: Berlin
(38.3226°N, 75.2177°W)
Time: 16:13:02
(UTC+00:00)

NOSS 3-2 (C) - Pass Details

Date: 26 October 2020
Orbit: 788 x 1424 km, 63.4° (Epoch: 23 November)

Event Time Altitude Azimuth Distance (km) Brightness Sun altitude
Exits shadow 08:44:13 47° 14° (NNE) 1,178 4.0 -31.4°
Drops below altitude 10° 08:48:45 10° 30° (NNE) 2,727 6.2 -30.5°
Sets 08:51:33 0° 32° (NNE) 3,775 7.1 -29.9°
